Weather History for Three Rivers, MI

Change the Weather History Date:

Friday, August 30, 2013

  Actual Average Record
Temperature  
Mean Temperature 78 °F -  
Max Temperature 91 °F 82 °F 95 °F (1953)
Min Temperature 66 °F 57 °F 35 °F (1976)
Cooling Degree Days 14    
Growing Degree Days 28 (Base 50)    
Moisture  
Dew Point 68 °F    
Average Humidity 69    
Maximum Humidity 93    
Minimum Humidity 45    
Precipitation  
Precipitation 0.00 in - - ()
Sea Level Pressure  
Sea Level Pressure 29.91 in    
Wind  
Wind Speed 4 mph (SW)    
Max Wind Speed 14 mph    
Max Gust Speed 23 mph    
Visibility 8 miles    
Events      
Averages and records for this station are not official NWS values.
T = Trace of Precipitation, MM = Missing Value Source: NWS Daily Summary

Daily Weather History Graph

Daily Weather History Graph

Search for Another Location

Airport:

Trip Planner

Search our weather history database for the weather conditions in past years. The results will help you decide how hot, cold, wet, or windy it might be!

Date:

Astronomy

Aug. 30, 2013 Rise Set
Actual Time 7:06 AM EDT 8:18 PM EDT
Civil Twilight 6:37 AM EDT 8:47 PM EDT
Nautical Twilight 6:02 AM EDT 9:21 PM EDT
Astronomical Twilight 5:26 AM EDT 9:58 PM EDT
Moon 1:41 AM EDT (8/30) 4:36 PM EDT (8/30)
Length of Visible Light 14h 10m
Length of Day
13h 12m
Waning Crescent, 29% of the Moon is Illuminated
Aug 30
Waning Crescent
Sep 5
New
Sep 12
First Quarter
Sep 19
Full
Sep 26
Last Quarter

Hourly Weather History & Observations

Time (EDT) Temp. Heat Index Dew Point Humidity Pressure Visibility Wind Dir Wind Speed Gust Speed Precip Events Conditions
12:15 AM 75.4 °F - 67.1 °F 75% 30.02 in 10.0 mi Calm Calm - N/A   Clear
12:34 AM 73.6 °F - 66.4 °F 78% 30.02 in 10.0 mi Calm Calm - N/A   Clear
12:55 AM 72.0 °F - 66.4 °F 83% 30.02 in 7.0 mi Calm Calm - N/A   Clear
1:15 AM 71.4 °F - 66.9 °F 86% 30.02 in 7.0 mi Calm Calm - N/A   Clear
1:34 AM 72.7 °F - 67.1 °F 83% 30.02 in 10.0 mi Calm Calm - N/A   Clear
1:55 AM 71.1 °F - 66.2 °F 85% 30.02 in 10.0 mi South 3.5 mph - N/A   Clear
2:14 AM 71.6 °F - 66.2 °F 83% 30.02 in 10.0 mi Calm Calm - N/A   Clear
2:35 AM 72.1 °F - 66.4 °F 82% 30.01 in 10.0 mi South 3.5 mph - N/A   Clear
2:54 AM 72.5 °F - 66.4 °F 81% 30.01 in 10.0 mi South 3.5 mph - N/A   Clear
3:15 AM 71.6 °F - 66.0 °F 82% 30.02 in 10.0 mi Calm Calm - N/A   Clear
3:35 AM 70.0 °F - 65.5 °F 86% 30.01 in 7.0 mi Calm Calm - N/A   Clear
3:54 AM 70.3 °F - 65.8 °F 86% 30.01 in 7.0 mi Calm Calm - N/A   Clear
4:15 AM 68.7 °F - 64.9 °F 88% 30.00 in 7.0 mi Calm Calm - N/A   Clear
4:35 AM 69.4 °F - 65.7 °F 88% 30.00 in 7.0 mi Calm Calm - N/A   Clear
4:54 AM 68.9 °F - 64.9 °F 87% 30.00 in 7.0 mi Calm Calm - N/A   Clear
5:15 AM 67.3 °F - 64.6 °F 91% 29.99 in 5.0 mi Calm Calm - N/A   Clear
5:35 AM 67.3 °F - 65.1 °F 93% 29.99 in 4.0 mi Calm Calm - N/A   Clear
5:54 AM 67.8 °F - 65.7 °F 93% 29.98 in 5.0 mi Calm Calm - N/A   Clear
6:15 AM 67.5 °F - 65.3 °F 93% 29.98 in 5.0 mi SSW 3.5 mph - N/A   Clear
6:34 AM 67.6 °F - 65.3 °F 92% 29.98 in 5.0 mi SSW 3.5 mph - N/A   Clear
6:54 AM 66.7 °F - 64.6 °F 93% 29.98 in 4.0 mi Calm Calm - N/A   Clear
7:15 AM 66.6 °F - 64.6 °F 93% 29.97 in 2.5 mi Calm Calm - N/A   Clear
7:34 AM 67.1 °F - 64.9 °F 93% 29.98 in 2.5 mi Calm Calm - N/A   Clear
7:55 AM 67.6 °F - 65.5 °F 93% 29.98 in 2.5 mi Calm Calm - N/A   Clear
8:15 AM 69.3 °F - 67.1 °F 93% 29.97 in 3.0 mi SSW 3.5 mph - N/A   Clear
8:34 AM 70.5 °F - 67.1 °F 89% 29.98 in 4.0 mi NW 3.5 mph - N/A   Clear
8:55 AM 72.0 °F - 67.5 °F 86% 29.98 in 4.0 mi WNW 4.6 mph - N/A   Haze
9:15 AM 73.8 °F - 67.6 °F 81% 29.97 in 5.0 mi SSW 8.1 mph - N/A   Haze
9:34 AM 75.7 °F - 68.0 °F 77% 29.97 in 7.0 mi SW 8.1 mph - N/A   Clear
9:55 AM 77.4 °F - 68.0 °F 73% 29.96 in 7.0 mi SSW 9.2 mph - N/A   Clear
10:14 AM 78.6 °F - 68.2 °F 70% 29.96 in 7.0 mi SSW 10.4 mph - N/A   Clear
10:35 AM 80.2 °F 82.8 °F 68.0 °F 66% 29.95 in 7.0 mi SSW 12.7 mph - N/A   Clear
10:55 AM 81.1 °F 83.9 °F 67.8 °F 64% 29.95 in 10.0 mi SSW 11.5 mph - N/A   Clear
11:14 AM 81.7 °F 84.2 °F 67.3 °F 61% 29.94 in 10.0 mi SW 9.2 mph - N/A   Clear
11:35 AM 84.0 °F 86.5 °F 66.9 °F 56% 29.94 in 10.0 mi SW 11.5 mph - N/A   Clear
11:55 AM 84.6 °F 87.1 °F 66.6 °F 55% 29.94 in 10.0 mi SW 10.4 mph - N/A   Clear
12:14 PM 84.2 °F 86.6 °F 66.2 °F 55% 29.93 in 10.0 mi SW 11.5 mph - N/A   Clear
12:35 PM 85.6 °F 87.9 °F 66.4 °F 52% 29.92 in 10.0 mi SSW 12.7 mph 19.6 mph N/A   Scattered Clouds
12:55 PM 86.4 °F 88.7 °F 66.2 °F 51% 29.92 in 10.0 mi SSW 8.1 mph 23.0 mph N/A   Scattered Clouds
1:14 PM 87.4 °F 89.8 °F 66.4 °F 49% 29.91 in 10.0 mi SW 10.4 mph 18.4 mph N/A   Scattered Clouds
1:35 PM 87.8 °F 90.4 °F 66.2 °F 49% 29.90 in 10.0 mi SW 11.5 mph - N/A   Scattered Clouds
1:54 PM 88.7 °F 91.1 °F 66.0 °F 47% 29.90 in 10.0 mi SW 8.1 mph - N/A   Clear
2:15 PM 89.2 °F 92.0 °F 66.6 °F 47% 29.90 in 10.0 mi SSW 10.4 mph - N/A   Clear
2:35 PM 89.1 °F 91.3 °F 66.0 °F 46% 29.89 in 10.0 mi SW 10.4 mph - N/A   Clear
2:54 PM 89.2 °F 92.4 °F 67.1 °F 48% 29.88 in 10.0 mi SSW 13.8 mph - N/A   Scattered Clouds
3:15 PM 90.3 °F 93.0 °F 66.0 °F 45% 29.87 in 10.0 mi South 10.4 mph - N/A   Scattered Clouds
3:35 PM 90.5 °F 93.3 °F 66.6 °F 45% 29.86 in 10.0 mi SW 9.2 mph - N/A   Scattered Clouds
3:54 PM 90.1 °F 93.1 °F 66.7 °F 46% 29.85 in 10.0 mi SSW 12.7 mph 16.1 mph N/A   Scattered Clouds
4:15 PM 91.0 °F 94.3 °F 66.7 °F 45% 29.84 in 10.0 mi SSW 9.2 mph - N/A   Scattered Clouds
4:35 PM 91.2 °F 94.6 °F 66.9 °F 45% 29.84 in 10.0 mi SW 9.2 mph - N/A   Clear
4:54 PM 90.5 °F 93.8 °F 67.1 °F 46% 29.83 in 10.0 mi SSW 12.7 mph 16.1 mph N/A   Clear
5:15 PM 91.2 °F 94.6 °F 67.3 °F 45% 29.83 in 10.0 mi SW 5.8 mph - N/A   Scattered Clouds
5:34 PM 91.4 °F 94.9 °F 67.6 °F 45% 29.82 in 10.0 mi SW 10.4 mph - N/A   Clear
5:55 PM 90.9 °F 94.8 °F 68.0 °F 47% 29.81 in 10.0 mi SW 11.5 mph - N/A   Clear
6:15 PM 89.4 °F 94.0 °F 68.9 °F 51% 29.81 in 10.0 mi SW 5.8 mph - N/A   Clear
6:34 PM 88.9 °F 93.4 °F 69.1 °F 52% 29.81 in 10.0 mi WSW 6.9 mph - N/A   Clear
6:55 PM 87.8 °F 92.6 °F 69.8 °F 55% 29.80 in 10.0 mi SSW 6.9 mph - N/A   Clear
7:15 PM 86.2 °F 91.4 °F 70.9 °F 60% 29.78 in 10.0 mi SW 6.9 mph - N/A   Clear
7:34 PM 86.0 °F 91.1 °F 70.7 °F 60% 29.79 in 10.0 mi SW 6.9 mph - N/A   Clear
7:55 PM 84.6 °F 89.4 °F 70.9 °F 63% 29.79 in 10.0 mi SW 6.9 mph - N/A   Clear
8:14 PM 84.6 °F 89.7 °F 71.1 °F 64% 29.80 in 10.0 mi SW 4.6 mph - N/A   Clear
8:35 PM 83.3 °F 88.2 °F 71.2 °F 67% 29.80 in 10.0 mi SW 4.6 mph - N/A   Scattered Clouds
8:55 PM 82.6 °F 87.3 °F 71.6 °F 69% 29.79 in 10.0 mi SW 9.2 mph - N/A   Clear
9:14 PM 83.7 °F 88.6 °F 71.1 °F 66% 29.76 in 10.0 mi SW 12.7 mph - N/A   Clear
9:35 PM 83.5 °F 88.2 °F 71.2 °F 66% 29.78 in 10.0 mi West 4.6 mph - N/A   Clear
9:55 PM 84.0 °F 89.3 °F 71.6 °F 66% 29.79 in 10.0 mi SSW 4.6 mph - N/A   Mostly Cloudy
10:14 PM 82.2 °F 87.3 °F 72.3 °F 72% 29.78 in 10.0 mi South 4.6 mph - N/A   Scattered Clouds
10:35 PM 80.8 °F 85.2 °F 72.5 °F 76% 29.77 in 7.0 mi SW 5.8 mph - N/A   Clear
10:55 PM 81.5 °F 86.3 °F 72.5 °F 74% 29.79 in 10.0 mi WNW 8.1 mph - N/A   Clear
11:14 PM 81.5 °F 86.1 °F 72.0 °F 73% 29.79 in 10.0 mi WNW 4.6 mph - N/A   Clear
11:35 PM 79.9 °F - 71.8 °F 76% 29.79 in 10.0 mi NNW 6.9 mph - N/A   Clear
11:55 PM 79.0 °F - 72.0 °F 79% 29.80 in 10.0 mi NW 8.1 mph - N/A   Scattered Clouds